Regional Weather Roundup
Issued by NWS Raleigh/Durham, NC

Home | Current Version | Previous Version | Text Only | Print | Product List | Glossary On
Versions: 1 2 3 4 5 6 7 8 9 10 11 12 13 14 15 16 17 18 19 20 21 22 23 24 25 26 27 28
000
ASUS42 KRAH 041710
RWRRAH
NORTH CAROLINA WEATHER ROUNDUP
NATIONAL WEATHER SERVICE RALEIGH NC
1200 PM EST SUN DEC 04 2016

NOTE: "FAIR" INDICATES FEW OR NO CLOUDS BELOW 12,000 FEET WITH NO
SIGNIFICANT WEATHER AND/OR OBSTRUCTIONS TO VISIBILITY.

NCZ001-053-055-056-065-067-041800-
WESTERN NORTH CAROLINA

CITY           SKY/WX    TMP DP  RH WIND       PRES   REMARKS
ASHEVILLE      RAIN      39  36  89 SE7       30.19F FOG     WCI  34
JEFFERSON      LGT RAIN  37  36  99 CALM      30.15F VSB 1/4
MORGANTON      RAIN      39  39  99 CALM      30.29S
HICKORY        LGT RAIN  39  38  96 CALM      30.24F FOG
RUTHERFORDTON  MIX PCPN  40  40 100 CALM      30.26S
MOUNT AIRY     DRIZZLE   40  36  84 E3        30.25F
BOONE          DRIZZLE   38  38 100 SE6       30.15F WCI  34
$$

NCZ021-022-025-041-071-084-088-041800-
CENTRAL NORTH CAROLINA

CITY           SKY/WX    TMP DP  RH WIND       PRES   REMARKS
CHARLOTTE      RAIN      41  38  89 VRB7      30.24F FOG
GREENSBORO     CLOUDY    41  36  82 CALM      30.23F
WINSTON-SALEM  CLOUDY    40  34  79 CALM      30.25F
RALEIGH-DURHAM LGT RAIN  46  32  58 CALM      30.26F
FORT BRAGG     LGT RAIN  43  39  87 CALM      30.25F
FAYETTEVILLE   LGT RAIN  44  41  89 CALM      30.26F
BURLINGTON     CLOUDY    43  35  73 SE3       30.25F
LAURINBURG     LGT RAIN  45  39  79 E8        30.26F
$$

NCZ011-015-027-028-043-044-047-080-103-041800-
NORTHEASTERN NORTH CAROLINA

CITY           SKY/WX    TMP DP  RH WIND       PRES   REMARKS
ROCKY MT-WILSO CLOUDY    46  34  62 E3        30.27F
GREENVILLE     PTSUNNY   46  36  66 CALM      30.27F
WASHINGTON     CLOUDY    49  38  65 NE3       30.27F
ELIZABETH CITY PTSUNNY   49  38  65 VRB3      30.26F
MANTEO         CLOUDY    49  40  69 N6        30.26F
CAPE HATTERAS  CLOUDY    51  41  68 VRB5      30.24F
$$

NCZ078-087-090-091-093-098-101-041800-
SOUTHEASTERN NORTH CAROLINA

CITY           SKY/WX    TMP DP  RH WIND       PRES   REMARKS
LUMBERTON      CLOUDY    46  39  76 NE5       30.25F
GOLDSBORO      PTSUNNY   46  41  82 CALM      30.25F
KINSTON        MOSUNNY   46  37  71 CALM      30.27F
KENANSVILLE    LGT RAIN  45  41  87 CALM      30.28S
NEW BERN       CLOUDY    49  38  65 NE3       30.26F
CHERRY POINT   CLOUDY    51  40  65 NE7       30.25F
BEAUFORT       CLOUDY    53  41  63 VRB7      30.24F
JACKSONVILLE   LGT RAIN  48  43  82 CALM      30.25F
WILMINGTON     CLOUDY    48  39  71 N7        30.26F
$$





USA.gov is the U.S. government's official web portal to all federal, state and local government web resources and services.